Home   Weather   Los Angeles   Past weeks
Flag for USA

Past Weather in Los Angeles, California, USA — Yesterday and Last 2 Weeks

Now
69 °F

Clear.


Feels Like: 69 °F
Forecast: 74 / 61 °F
Wind: No wind

Location: Los Angeles / USC Campus Downtown

Current Time: Oct 16, 2019 at 9:42:26 pm

Latest Report: Oct 16, 2019 at 8:52 pm


Visibility: 10 mi

Pressure: 29.80 "Hg

Humidity: 57%

Dew Point: 53 °F

Location of Los AngelesLocation

Past Weather in Los Angeles — Graph

°F

Los Angeles Temperature Yesterday

Maximum temperature yesterday: 83 °F (at 2:52 pm)
Minimum temperature yesterday: 60 °F (at 5:52 am)
Average temperature yesterday: 69 °F

High & Low Weather Summary for the Past Weeks

 TemperatureHumidityPressure
High93 °F (Oct 16, 12:52 pm)84% (Oct 8, 11:52 pm)30.03 "Hg (Oct 8, 11:52 pm)
Low57 °F (Oct 11, 5:52 am)4% (Oct 11, 12:52 pm)29.78 "Hg (Oct 16, 4:52 pm)
Average70 °F56%29.90 "Hg
* Reported Oct 1 8:52 pm — Oct 16 8:52 pm, Los Angeles. Weather by CustomWeather, © 2019

Note: Actual official high and low records may vary slightly from our data, if they occured in-between our weather recording intervals... More about our weather records

Advertising

Los Angeles Weather History for the Previous 24 Hours

Scroll right to see more
 ConditionsComfort  
Time TempWeatherWind HumidityBarometerVisibility
8:52 pm
Wed, Oct 16
69 °FClear.No wind57%29.80 "Hg10 mi
7:52 pm70 °FClear.No wind64%29.79 "Hg10 mi
6:52 pm74 °FClear.No wind56%29.78 "Hg10 mi
5:52 pm76 °FSunny.5 mph48%29.79 "Hg10 mi
4:52 pm79 °FSunny.No wind35%29.78 "Hg10 mi
3:52 pm77 °FSunny.No wind42%29.80 "Hg10 mi
2:52 pm84 °FSunny.6 mph33%29.81 "Hg10 mi
1:52 pm91 °FSunny.No wind28%29.81 "Hg10 mi
12:52 pm93 °FSunny.No wind17%29.84 "Hg10 mi
11:52 am92 °FSunny.No wind16%29.88 "Hg10 mi
10:52 am88 °FSunny.3 mph18%29.90 "Hg10 mi
9:52 am83 °FSunny.No wind26%29.91 "Hg10 mi
8:52 am74 °FSunny.No wind35%29.93 "Hg10 mi
7:52 am66 °FSunny.No wind49%29.93 "Hg10 mi
6:52 am62 °FClear.No wind60%29.93 "Hg10 mi
5:52 am64 °FClear.No wind52%29.91 "Hg10 mi
4:52 am64 °FClear.3 mph56%29.90 "Hg10 mi
3:52 am63 °FClear.No wind70%29.90 "Hg10 mi
2:52 am64 °FClear.No wind65%29.92 "Hg10 mi
1:52 am67 °FClear.No wind57%29.92 "Hg10 mi
12:52 am67 °FClear.No wind68%29.93 "Hg10 mi
11:52 pm
Tue, Oct 15
68 °FClear.No wind70%29.93 "Hg10 mi
10:52 pm69 °FClear.No wind68%29.94 "Hg10 mi
9:52 pm69 °FClear.No wind68%29.93 "Hg10 mi
Weather by CustomWeather, © 2019

See weather overview